星链-32953 (STARLINK-32953)

导读

STARLINK-32953是美国SpaceX公司星链星座中的一颗卫星,于2025年4月13日成功发射。作为星链计划的组成部分,它主要用于为全球提供低延迟、高速率的宽带互联网服务,尤其覆盖偏远地区。该卫星部署于近地轨道,依托SpaceX可复用火箭技术完成发射,持续拓展星链星座的全球服务覆盖能力。

基本信息
目录编号:
63561
目录名称:
STARLINK-32953
国际标识:
2025-075P
轨道中心:
EARTH
卫星名称:
星链-32953
卫星全名:
星链-32953 (STARLINK-32953)
卫星状态:
在轨 (已飞行427 天)
发射日期:
2025-04-13 UTC
国别 :
美国 (US)
星等 :
--
轨道信息
数据来源 国际轨道数据
星历时间: 2026-06-12T10:18:53+0800
2天前
查看轨道信息
半长轴: 6861.125km
偏心率: 0.0001448
轨道倾角: 43.001°
近地点辐角 269.793°
升交点赤经 97.649°
平近点角 90.275°
近地点: 481.994km
远地点: 483.982km
周期: 94.265分钟
每日圈数: 15.276006
详细信息
固有亮度:
5
最大亮度:
2.5
卫星平台:
Starlink V1.0
覆盖范围:
全球
运营商:
太空探索技术公司
运营商所在国:
美国
制造商(研发单位):
太空探索技术公司
制造商所在国:
美国
使用方式:
暂无
卫星简介
Starlink 计划是 SpaceX 推出的全球卫星互联网项目,通过发射低轨道卫星,为全球尤其是偏远地区提供高速、低延迟的互联网服务。自 2019 年起,Starlink 已部署数千颗卫星,旨在缩小全球数字鸿沟,推动互联网普及。该项目还为军事、航空等行业提供通信支持,带来广泛经济效益。
2D轨道图
3D轨道图
轨道高度分析图
轨道倾角分析图
轨道综合分析图
查看轨道综合分析图